Wind_Speed
22 21 21 20 20 20 19 19 19 19 19 20 20 20 20 20 20 19 18 17 17 16 16 16 16 15 15 15 14 14 13 13 13 14 14 13 13 13 13 12 11 10 10 11 11 11 12 12 13 13 13 13 13 13 12 12 12 12 12 12 12 12 13 13 14 15 15 15 14 14 15 15 15 16 17 17 17 17 17 17 16 16 16 15 15 14 14 15
25 25 24 24 23 23 22 22 22 21 21 21 20 21 21 20 20 20 20 19 19 18 18 18 18 17 17 17 17 16 16 16 16 16 15 15 15 15 15 15 14 13 13 12 12 13 13 13 13 13 14 14 13 14 13 13 13 13 13 13 13 13 13 14 14 15 15 16 15 15 16 16 16 16 17 17 18 19 18 17 17 17 16 15 15 14 14 15
28 28 27 27 27 26 26 26 25 25 24 24 24 23 23 23 22 22 22 22 21 21 21 20 20 20 20 20 19 19 19 18 18 18 18 18 18 17 17 17 17 16 16 15 15 15 15 15 15 14 15 15 15 15 15 14 14 15 15 14 15 15 15 15 15 15 15 16 16 16 15 16 16 15 17 18 18 19 19 19 18 18 17 16 16 15 14 15
30 30 30 30 30 30 29 29 28 28 28 27 27 27 27 26 26 25 25 25 25 24 24 24 23 23 22 22 22 22 22 21 21 21 20 20 20 20 20 20 19 19 19 18 18 17 17 17 17 17 16 16 16 16 16 16 16 16 16 16 16 16 17 17 17 17 17 17 16 16 15 16 16 16 17 18 18 18 19 20 19 19 19 18 18 18 17 16
32 32 32 32 32 32 32 32 32 31 31 31 31 30 30 30 29 29 29 28 28 28 27 27 26 26 26 25 25 25 25 25 24 23 23 23 23 23 22 22 21 21 22 21 21 20 20 20 20 20 19 19 18 18 17 18 18 17 18 18 18 18 18 18 19 19 18 18 18 17 16 16 17 17 18 19 19 18 18 20 20 19 20 19 20 20 19 19
33 33 33 34 34 34 34 34 34 34 34 34 34 33 33 33 33 32 32 31 31 31 31 30 30 29 29 28 28 27 27 27 26 26 26 26 26 25 25 24 24 24 24 24 24 23 23 23 23 23 22 22 21 21 20 20 20 20 19 20 19 19 19 19 19 20 20 20 20 19 18 18 17 18 19 21 21 18 18 20 20 20 20 20 21 21 21 20
33 34 34 34 35 35 35 36 36 36 36 36 36 36 36 35 35 35 34 34 33 34 33 33 32 32 31 31 31 30 30 30 29 29 29 28 28 28 27 27 27 26 26 26 26 26 26 26 26 25 25 25 25 24 24 23 23 23 23 22 22 22 21 21 20 21 21 21 21 21 20 19 18 19 20 24 22 18 18 20 20 21 22 22 22 23 23 22
33 34 34 35 35 35 36 36 37 37 37 38 38 38 38 38 37 37 37 36 36 35 35 35 35 35 34 33 33 32 32 32 31 31 31 31 30 30 30 30 29 29 29 29 29 29 29 29 29 28 28 28 28 27 27 27 26 26 26 25 25 25 24 23 23 23 22 22 23 22 22 20 19 20 22 26 25 20 20 21 22 23 23 24 24 25 25 25
33 33 34 34 35 35 36 36 37 37 38 38 39 39 39 39 39 39 39 38 38 37 37 37 37 37 36 36 36 34 34 34 33 33 33 32 32 32 32 32 32 31 31 32 32 32 31 32 32 31 31 31 31 31 30 31 30 29 29 28 28 28 27 27 26 26 25 25 25 25 24 22 20 21 24 28 26 22 22 22 22 24 25 26 26 27 27 27
33 33 34 34 34 35 35 36 37 37 38 38 39 39 40 41 41 41 40 40 40 40 39 39 39 38 38 38 37 36 37 36 35 35 34 34 34 33 34 34 34 34 34 34 34 34 34 34 34 34 34 34 34 34 34 34 34 33 32 31 31 31 30 30 29 29 28 28 28 28 27 24 22 21 25 28 26 24 24 24 24 24 26 27 28 28 29 30
34 34 35 35 35 35 36 36 36 37 37 38 38 39 39 40 41 42 42 42 42 41 41 41 41 40 40 39 38 37 38 37 36 36 36 35 35 35 35 35 35 36 36 36 36 36 36 36 36 36 36 36 36 36 36 36 36 36 36 35 34 35 34 33 32 32 31 31 30 32 30 26 24 22 24 28 27 27 26 26 27 26 27 28 28 29 30 32
36 36 35 36 36 36 36 37 37 37 37 38 38 38 38 39 40 41 42 42 43 43 43 43 43 42 42 40 39 39 38 37 37 37 37 37 37 36 37 37 37 37 37 37 37 38 38 38 38 38 38 38 38 38 38 37 38 38 38 38 38 37 36 35 35 35 34 33 33 35 33 27 26 24 23 28 31 31 29 28 30 29 29 29 30 31 32 33
37 37 36 36 36 36 36 37 37 38 38 38 39 38 38 38 39 40 41 42 43 43 44 44 44 44 44 42 40 41 40 39 38 38 37 37 37 37 37 38 38 38 39 39 39 39 39 39 39 39 39 39 40 40 39 39 39 39 40 40 40 40 39 36 37 38 37 36 36 39 37 28 28 30 26 28 33 33 31 30 31 32 31 32 32 33 34 35
38 38 37 37 37 37 37 37 37 38 38 39 39 39 39 39 39 40 41 42 42 43 44 44 45 45 45 43 41 42 41 41 40 39 39 38 37 37 38 38 39 39 39 39 39 40 40 40 40 40 39 40 41 41 41 41 40 40 42 43 42 42 40 39 38 39 40 40 39 42 43 33 29 34 32 30 33 34 33 32 32 33 33 34 34 35 36 37
38 38 38 38 38 38 38 38 38 38 38 39 40 40 40 40 40 40 41 41 42 43 43 44 45 46 46 44 42 42 42 42 42 41 40 39 38 38 38 39 40 39 40 40 39 40 40 40 40 40 40 40 41 42 42 42 41 41 44 44 43 43 41 41 41 41 42 42 43 45 48 41 32 33 36 36 35 35 34 33 33 34 34 35 36 36 37 39
39 38 38 38 39 39 39 39 39 39 39 40 41 41 41 41 41 41 42 42 42 43 43 44 44 46 47 43 41 42 42 43 43 42 41 40 40 40 40 41 40 40 40 40 40 40 40 40 40 41 41 40 41 42 42 42 42 43 46 45 43 43 43 44 44 43 43 44 46 48 50 47 38 34 36 38 38 38 37 34 34 35 35 36 37 37 38 39
40 40 39 39 40 40 40 40 40 40 40 41 42 43 43 43 42 42 42 42 43 43 44 44 44 46 46 43 41 42 42 43 43 42 41 41 41 41 41 42 41 42 42 41 41 41 41 41 41 41 41 41 41 42 43 43 42 45 48 47 44 43 44 45 46 46 46 46 48 51 52 49 44 39 37 37 39 40 39 36 35 36 37 38 38 38 39 40
42 41 41 41 41 41 41 41 41 40 41 41 43 44 45 46 45 44 44 44 44 44 45 45 45 47 46 43 42 42 42 43 43 42 42 41 41 42 42 42 42 42 43 42 42 41 42 42 42 42 41 40 40 41 44 44 43 45 47 49 47 46 46 45 47 49 48 49 51 53 53 50 46 43 39 37 39 40 39 37 36 36 38 40 41 39 39 40
44 44 43 43 43 43 43 43 42 42 42 42 43 44 45 47 47 47 46 46 46 45 46 47 46 47 47 44 44 44 42 42 42 41 41 40 41 42 42 42 42 43 43 43 43 42 42 44 43 42 40 39 41 42 44 45 45 46 46 48 48 48 48 45 47 51 48 51 53 53 54 52 47 45 41 37 38 39 38 36 36 37 38 40 41 41 40 41
46 46 46 45 45 45 46 46 45 44 44 44 44 45 46 47 47 48 48 48 48 48 49 49 48 48 47 46 45 46 44 43 42 41 40 40 41 41 42 43 43 43 43 42 43 42 42 45 44 40 37 39 42 43 44 45 46 46 46 47 48 49 48 45 48 51 49 52 54 53 54 52 47 45 43 38 38 38 36 34 35 36 38 39 41 42 42 41
49 49 48 47 47 47 48 48 47 46 46 46 46 47 48 48 48 49 49 49 49 50 50 51 51 50 48 47 47 47 46 45 43 40 40 40 40 41 42 42 43 43 42 42 44 43 43 46 42 36 36 39 42 44 44 45 46 46 46 47 48 48 47 45 48 49 49 53 54 52 54 52 47 44 41 38 37 37 35 33 34 36 37 39 40 42 42 41
51 51 50 49 49 49 49 49 49 49 49 48 48 49 49 50 50 51 51 52 50 50 51 53 54 53 50 50 49 48 48 47 43 41 40 41 41 42 42 42 43 44 44 43 44 45 47 46 38 34 37 39 40 42 43 44 44 45 45 46 47 45 44 46 47 47 48 52 52 52 54 51 46 43 39 36 34 34 34 32 34 36 35 37 40 41 40 40
51 51 51 51 50 51 51 51 51 50 50 50 50 50 51 51 52 53 54 55 53 50 51 53 54 55 54 52 51 50 51 48 45 42 40 41 41 42 44 44 43 46 47 45 45 48 50 46 38 36 38 39 40 41 42 43 45 45 44 45 45 42 43 47 47 46 46 50 51 51 54 52 45 41 38 34 32 31 31 33 36 35 33 36 39 39 39 38
49 50 51 51 51 52 52 52 52 52 52 52 52 52 52 53 54 54 55 58 58 53 49 50 53 55 55 54 53 53 52 50 48 45 41 42 44 43 46 46 46 49 49 46 48 51 51 47 42 42 42 43 44 44 43 44 46 46 45 45 44 43 45 49 49 47 47 50 51 50 55 54 45 41 38 32 31 30 29 32 35 36 34 35 36 36 37 37
46 48 49 50 51 52 52 53 53 53 53 53 53 53 53 54 54 55 56 59 63 57 50 50 53 53 53 53 54 53 54 53 50 46 43 44 45 45 47 48 49 50 49 48 51 54 52 49 46 46 46 46 48 47 43 44 47 49 47 44 44 46 48 49 50 50 50 51 51 49 55 57 47 42 39 33 31 31 31 31 31 35 37 36 35 34 36 36
45 46 47 48 49 50 51 52 52 53 53 53 54 54 54 55 55 56 57 60 65 63 55 53 53 52 49 49 49 50 53 54 50 47 46 46 46 47 49 50 50 51 51 51 53 57 54 49 48 48 48 48 49 47 44 44 47 51 50 45 46 48 49 50 50 51 52 52 54 51 52 56 52 45 41 37 35 33 32 31 29 32 36 38 38 37 37 35
45 46 46 47 49 49 50 50 51 52 52 53 54 55 55 55 55 56 57 61 68 68 62 59 56 53 50 47 46 47 49 48 46 47 48 47 47 48 50 52 51 51 52 53 56 58 53 49 49 49 49 50 50 47 45 45 49 52 51 47 47 48 49 50 50 52 53 53 57 55 50 53 57 51 46 45 44 39 35 31 29 30 33 37 39 38 36 35
47 47 47 48 50 50 50 50 50 50 51 52 53 54 55 55 56 56 57 63 69 70 68 65 58 52 50 49 46 46 45 44 43 44 45 46 48 49 50 51 52 53 52 54 57 57 53 51 50 50 51 52 50 47 46 46 49 51 50 49 48 48 49 50 50 52 53 55 61 57 49 52 60 58 55 54 49 43 38 33 31 32 33 34 36 37 36 35
50 49 48 49 50 51 51 51 51 51 51 51 52 54 54 55 56 55 58 65 70 70 69 66 60 55 52 51 50 48 47 45 44 43 42 44 46 48 51 51 52 55 53 54 57 56 55 53 51 52 52 50 48 47 46 46 48 50 50 50 49 48 49 50 53 53 54 60 62 56 49 52 61 63 60 58 52 47 42 38 35 33 31 30 32 36 39 37
52 51 50 50 51 52 52 52 52 53 52 53 53 53 54 55 55 56 63 69 70 68 66 64 63 60 55 52 51 50 49 48 46 44 43 43 44 45 49 50 52 55 55 56 58 56 55 54 53 53 51 49 48 46 46 47 49 50 50 51 50 50 51 52 55 55 57 63 60 53 51 53 62 66 62 60 57 54 48 40 35 30 27 28 30 34 40 41
54 53 52 52 53 53 53 53 54 54 54 54 54 55 56 56 56 61 68 70 68 64 62 62 61 59 57 54 52 52 51 51 50 47 46 45 45 46 47 49 50 54 56 57 57 55 55 55 55 52 50 49 49 47 48 48 49 50 50 51 51 53 55 56 58 58 59 64 59 55 55 56 63 67 63 62 60 60 52 41 35 31 27 28 31 35 40 41
56 56 55 55 56 56 55 55 55 55 55 55 56 57 56 58 60 64 67 66 64 59 56 56 57 58 59 58 56 55 54 54 52 51 50 49 48 48 48 49 50 52 55 57 57 55 55 55 53 53 51 50 49 49 50 50 50 50 50 51 52 55 58 60 63 61 59 62 61 59 61 63 68 66 62 61 60 62 56 43 37 33 29 31 34 38 39 39
57 58 57 57 58 59 59 58 57 58 58 58 59 59 58 61 62 60 61 62 60 57 54 55 57 58 59 59 59 58 57 56 54 53 53 52 52 51 50 50 50 50 52 54 55 57 58 57 54 54 52 49 49 50 51 50 50 50 52 52 53 56 59 62 63 62 62 63 63 64 66 68 70 65 62 60 60 63 56 44 39 36 33 35 37 37 37 38
59 60 59 59 60 61 61 61 61 61 61 62 62 61 63 65 61 57 58 59 58 59 60 60 60 60 60 60 60 60 59 59 56 55 55 54 53 52 51 51 51 51 50 51 54 56 59 59 56 54 51 49 50 49 49 51 52 53 54 54 56 58 60 61 62 63 65 66 67 69 71 71 69 66 64 64 63 63 56 45 41 39 37 37 36 36 37 39
61 63 63 62 62 62 62 63 64 64 65 65 63 64 66 64 59 58 61 62 61 62 62 62 62 62 61 60 60 60 61 61 59 59 58 56 54 52 51 51 51 51 51 52 53 54 56 57 55 55 53 51 51 50 50 52 55 57 58 58 61 60 57 58 60 63 66 68 70 73 74 71 69 66 65 66 65 63 57 49 44 42 38 37 36 36 36 38
63 64 66 66 64 62 62 63 65 67 68 69 68 68 66 62 59 60 62 63 63 62 61 62 63 63 63 63 62 61 61 63 62 62 61 58 56 54 53 52 51 51 53 54 53 51 54 56 55 56 57 55 54 54 53 54 57 60 61 62 61 58 56 58 62 64 66 69 71 72 72 69 67 66 64 65 65 61 54 48 43 39 37 36 37 37 35 35
66 66 67 68 67 64 63 64 66 69 71 73 75 72 67 65 64 66 66 65 66 67 68 68 66 66 66 66 66 64 63 65 64 63 62 60 59 57 55 55 53 53 54 54 54 52 54 57 57 57 59 58 56 56 55 56 60 62 62 61 60 60 61 61 63 65 66 70 71 68 70 69 67 67 65 65 66 58 49 44 40 36 35 34 36 37 36 36
68 68 68 67 69 68 66 66 68 70 72 75 77 74 69 67 66 68 70 67 68 71 72 72 70 70 69 69 69 68 67 68 66 66 66 65 65 61 58 58 57 56 55 56 57 57 57 59 59 59 61 60 58 58 59 60 61 61 59 59 60 62 64 63 65 67 67 71 72 68 68 68 66 64 63 65 65 57 49 44 39 35 33 33 36 38 38 39
68 70 69 66 66 68 67 67 68 69 70 73 76 74 70 67 66 68 71 69 69 72 72 72 72 73 72 71 73 73 73 73 72 72 71 70 69 65 61 60 59 58 56 57 61 61 60 63 63 61 62 63 62 62 63 63 62 62 61 61 62 63 65 66 68 68 68 71 73 70 67 65 62 60 59 62 62 58 52 47 42 38 33 33 37 40 40 41
70 71 71 67 67 69 68 66 67 68 69 71 73 74 73 72 70 70 70 71 72 73 73 73 73 75 75 74 75 76 76 77 76 75 74 73 72 70 68 66 62 58 55 56 60 62 64 68 67 64 64 65 64 63 63 63 63 65 66 66 66 67 68 69 70 70 70 71 72 69 66 64 62 61 62 61 60 59 54 48 46 42 36 36 41 43 44 44
73 74 74 69 69 71 71 71 70 70 71 69 68 70 72 73 73 72 72 73 74 74 74 74 74 75 75 75 75 75 76 77 77 76 76 75 74 73 72 68 62 57 55 56 58 60 64 68 67 66 66 65 62 59 60 61 61 63 65 64 65 65 66 69 71 69 70 71 70 68 68 67 65 65 65 61 59 59 55 51 51 46 39 41 45 46 47 46
79 80 80 76 74 73 74 76 76 74 75 74 69 68 69 71 73 74 75 75 75 74 74 73 73 74 74 75 75 74 75 76 76 75 76 75 73 72 72 68 65 62 59 59 58 58 62 67 68 68 66 63 59 57 58 59 59 61 63 62 62 63 64 67 70 69 68 70 69 69 72 72 67 65 66 63 60 59 59 58 55 47 43 46 47 46 45 44
83 82 81 80 80 79 79 81 83 82 82 80 76 74 74 76 78 79 79 78 78 77 76 76 75 75 76 77 76 76 77 78 78 77 75 73 72 70 69 69 68 67 65 64 63 61 62 66 68 67 65 62 60 59 59 61 64 66 66 63 62 63 63 64 67 68 69 69 68 73 79 76 68 66 66 64 61 61 61 60 54 47 48 50 48 44 43 43
85 85 84 83 83 84 84 85 86 87 87 86 84 83 81 82 81 80 80 80 80 79 80 80 81 82 82 80 79 79 79 79 80 78 75 75 75 72 71 70 70 69 68 68 68 65 64 66 66 65 66 65 64 64 65 67 69 69 66 63 62 62 61 62 65 67 70 71 70 76 83 77 68 66 65 62 61 59 57 54 49 47 50 51 48 46 46 47
85 86 87 87 86 87 88 86 85 86 87 87 88 87 86 86 85 81 80 81 80 80 81 80 81 81 80 79 78 78 79 81 82 80 77 76 75 74 74 74 73 71 70 70 70 67 66 66 67 67 70 70 70 70 70 70 70 68 66 64 63 62 63 65 66 69 73 74 74 78 81 77 68 64 61 58 56 55 52 50 49 50 52 52 51 51 52 53
86 87 88 88 89 91 91 90 88 90 90 89 88 88 87 88 87 84 83 84 82 81 81 82 81 80 79 77 76 75 75 76 78 80 80 79 78 78 78 78 75 72 71 71 72 72 73 73 72 73 75 76 76 74 70 69 71 70 68 67 67 67 68 69 71 75 76 77 77 77 76 75 68 60 57 55 55 55 55 54 56 57 55 55 56 57 57 57
86 88 89 88 89 91 92 92 92 93 94 93 93 93 89 87 87 86 87 88 87 84 85 85 85 85 85 83 81 80 78 75 75 76 76 75 75 75 75 74 73 71 70 69 70 73 77 78 76 76 77 77 76 74 69 68 70 71 70 70 70 69 69 71 74 75 73 76 79 75 70 72 69 60 57 58 58 58 57 58 60 60 59 59 61 61 60 60
86 87 88 88 89 90 91 91 92 94 95 95 96 97 95 93 92 91 89 89 89 89 90 90 88 86 86 85 85 86 85 83 82 82 80 78 75 73 72 70 68 67 65 65 65 65 69 73 72 71 73 72 70 70 67 65 68 70 70 69 67 67 67 69 72 72 71 76 78 71 65 67 65 58 56 58 58 57 57 59 60 60 60 60 61 61 61 63
85 86 86 87 89 90 89 88 89 91 93 95 97 99 98 98 98 97 94 93 93 93 93 93 91 87 84 83 84 86 86 84 84 84 84 85 84 82 80 77 73 70 67 65 63 62 65 69 67 66 68 68 66 66 65 64 65 66 65 64 64 65 65 67 71 72 71 72 71 65 62 63 60 58 58 58 57 57 58 57 56 56 57 56 56 58 59 60
84 85 86 87 88 90 90 89 88 88 91 93 95 98 99 99 99 98 98 99 100 99 98 98 96 92 90 89 91 94 94 90 88 84 80 83 85 84 83 82 78 75 73 70 68 66 66 67 65 63 65 65 63 63 65 66 66 66 66 67 67 68 70 71 72 70 67 67 66 64 65 66 62 60 60 58 56 56 55 52 51 53 53 52 55 57 57 54
83 84 85 87 89 90 91 91 90 90 92 93 94 96 98 98 98 97 98 100 100 100 101 101 100 99 98 98 99 101 99 97 96 93 89 90 92 89 89 90 86 83 80 76 73 72 70 68 66 64 67 66 60 58 61 62 63 66 66 63 62 66 69 68 65 64 65 68 68 68 69 68 63 57 55 56 57 55 52 51 53 55 53 54 61 64 62 58
83 84 84 87 91 91 90 91 91 92 94 94 93 93 93 93 93 93 96 99 100 99 100 100 99 100 100 101 101 101 99 97 98 98 96 97 97 93 93 96 95 96 94 88 85 84 83 82 77 74 78 76 66 63 64 63 66 69 64 57 57 62 64 64 65 67 68 68 69 71 71 68 60 52 53 56 54 51 52 57 62 63 61 63 68 68 65 63
Wind_Direction
252 253 255 257 259 262 265 267 268 269 270 271 271 272 273 274 275 276 277 278 278 279 280 281 282 282 283 283 283 283 283 285 288 290 293 297 299 302 304 306 308 308 306 301 297 295 296 300 305 308 309 310 313 315 317 317 319 319 316 314 310 307 305 304 303 301 300 300 297 296 295 296 298 300 301 302 302 301 302 302 303 299 295 297 298 297 297 296
252 253 253 254 255 257 260 262 264 267 268 270 271 272 273 274 274 275 275 276 277 277 276 276 277 278 278 279 280 280 279 279 279 281 284 286 288 291 293 295 297 299 299 299 299 296 295 295 296 298 299 302 305 307 309 312 314 314 313 313 312 310 308 307 307 305 304 303 301 299 298 298 299 300 299 301 301 301 303 302 303 301 298 299 297 296 296 295
254 254 254 254 255 256 256 258 260 262 264 266 268 269 270 272 273 273 274 274 274 275 274 274 274 274 274 275 275 276 276 275 275 275 276 278 280 282 283 286 288 291 292 294 295 296 296 295 295 295 295 296 298 300 302 305 307 308 308 308 309 309 309 309 309 309 308 307 306 305 304 302 302 302 300 300 300 299 301 300 302 302 301 302 300 299 298 296
257 257 256 256 257 257 257 258 258 259 260 261 263 264 266 267 268 269 270 270 271 271 271 271 271 271 271 271 271 272 272 272 272 272 273 273 274 275 276 278 281 284 286 287 289 290 291 292 293 293 292 293 293 295 297 299 301 303 304 304 306 305 306 308 308 309 309 308 308 307 307 305 306 307 303 302 300 301 302 300 301 301 301 303 302 302 302 301
258 259 259 259 259 259 260 260 260 261 260 261 261 262 263 264 264 265 266 266 267 268 268 268 268 268 268 268 268 269 270 270 271 272 271 271 270 270 271 272 274 278 281 282 283 284 286 287 289 290 291 292 292 293 295 296 297 299 301 302 303 303 303 304 305 307 307 308 307 308 308 307 309 309 306 303 301 304 304 301 302 302 303 304 303 303 303 302
258 259 260 261 261 261 262 262 263 263 264 264 264 263 263 263 264 264 264 265 265 266 266 265 265 266 266 266 266 267 267 269 269 269 269 269 269 269 270 270 271 274 276 277 278 280 282 283 285 287 289 291 292 292 294 294 295 296 297 298 300 300 301 301 302 303 304 305 306 307 307 307 309 308 307 302 301 307 305 302 305 305 305 306 305 304 304 303
257 258 259 260 261 262 263 263 264 265 265 266 267 267 266 266 266 266 266 266 267 267 267 266 266 265 265 265 265 266 267 267 268 268 268 269 269 270 270 271 271 272 273 274 275 277 279 280 282 284 286 288 290 291 292 292 293 294 294 295 296 297 298 299 299 300 301 302 303 305 306 307 308 309 307 299 300 308 305 303 306 306 307 308 307 306 305 306
259 259 260 260 261 262 263 264 264 265 266 267 268 268 269 269 268 269 269 269 269 270 270 270 269 268 267 266 266 266 267 267 268 269 269 269 270 271 272 272 273 273 273 274 275 276 277 279 281 282 283 285 286 288 290 290 291 292 292 293 294 295 295 296 297 297 298 299 299 301 302 305 308 309 304 296 299 306 302 303 306 305 307 307 307 307 306 306
262 262 262 262 262 262 263 263 264 265 266 267 268 269 270 270 270 270 270 270 271 271 271 272 272 272 271 270 269 269 269 269 269 270 270 271 271 272 272 273 273 274 275 275 276 277 277 279 281 281 282 283 284 285 287 289 289 290 291 292 293 293 293 294 294 294 295 296 297 297 298 301 306 308 300 294 300 305 302 303 305 305 306 307 307 306 306 306
263 264 265 265 265 265 265 265 265 265 265 266 267 268 269 270 271 271 271 271 271 271 272 272 272 272 272 272 272 272 271 271 272 272 272 272 273 273 273 273 274 275 275 276 277 278 279 280 281 281 281 282 283 284 285 287 288 289 289 290 291 291 291 292 292 293 293 293 294 293 294 297 304 307 297 294 302 303 303 306 306 306 306 306 306 306 305 304
261 263 264 266 267 267 267 267 267 266 266 266 267 267 268 270 271 271 272 272 272 272 272 272 272 272 272 271 272 272 273 273 273 273 273 273 274 274 274 274 275 275 276 277 278 279 280 280 281 281 282 282 282 284 285 285 287 287 288 288 288 289 289 291 291 291 291 292 292 290 290 293 300 302 296 297 303 302 303 306 306 306 306 305 305 304 304 302
260 261 263 264 265 267 268 268 269 269 268 268 267 267 267 268 270 271 272 272 272 273 273 273 273 273 272 272 273 273 273 274 273 274 274 274 275 275 276 276 276 277 277 278 278 279 280 280 281 281 282 282 282 283 283 284 285 286 287 286 286 286 287 289 291 292 291 291 291 289 287 291 295 294 294 298 299 299 303 304 303 304 304 304 304 304 303 301
260 261 262 263 265 266 267 268 269 270 270 270 269 268 268 267 268 269 271 271 271 272 272 273 273 273 273 273 274 274 274 274 274 274 274 274 275 276 277 277 277 277 277 278 278 278 278 280 280 281 282 282 282 283 283 284 285 286 285 284 284 284 285 287 290 291 291 291 291 289 286 289 292 289 290 294 294 295 299 301 301 302 302 303 303 303 302 300
261 261 261 262 264 265 266 267 268 269 270 270 271 270 270 269 268 268 269 270 271 271 272 272 273 273 273 273 274 275 275 275 275 274 274 275 275 276 277 277 277 277 277 277 277 278 278 279 279 280 281 281 282 282 284 284 285 286 284 283 283 284 285 286 287 288 289 289 290 288 287 288 290 289 290 290 289 292 294 296 298 299 300 301 301 302 301 300
261 261 262 262 263 265 266 267 268 269 270 270 271 271 271 270 270 269 269 270 271 271 272 272 273 273 272 273 274 275 276 276 276 275 276 276 277 277 277 277 277 277 277 278 278 278 279 279 280 280 280 281 282 283 284 284 284 284 283 283 284 285 286 285 284 285 287 288 288 288 287 288 288 287 288 288 287 289 291 292 294 295 297 298 298 299 299 299
261 262 262 263 264 265 265 267 267 268 270 271 271 271 271 271 270 270 270 270 271 271 272 272 273 273 273 273 274 275 275 275 275 276 278 278 278 278 278 278 278 279 279 279 279 279 279 280 280 280 280 281 282 284 284 284 284 283 281 282 285 286 287 285 284 284 285 286 286 286 286 287 289 287 285 285 286 287 288 289 291 292 294 295 295 296 297 297
261 261 262 263 264 265 266 267 269 270 270 271 272 272 272 272 271 271 271 271 271 271 272 272 273 273 273 274 274 274 274 275 275 277 277 278 278 278 278 279 280 280 281 281 281 281 281 280 280 280 280 281 283 284 284 283 284 283 282 283 284 284 284 285 285 285 285 285 285 284 284 285 287 286 283 284 284 284 285 287 288 291 293 293 293 294 295 295
262 262 262 262 263 264 266 267 269 270 270 271 271 272 273 273 273 272 272 272 272 272 272 272 273 274 274 275 275 274 274 274 275 276 277 278 278 278 279 280 281 281 281 281 282 282 282 281 280 279 280 283 283 282 281 282 282 282 283 284 284 283 282 284 285 284 285 285 283 283 284 284 284 284 283 282 282 281 282 284 286 289 291 292 294 294 294 294
263 263 263 263 263 264 265 266 267 268 269 270 271 272 273 274 274 273 273 272 273 273 272 272 272 274 275 275 275 274 273 274 275 276 277 278 278 279 280 280 281 281 281 282 283 282 282 281 279 280 284 285 281 278 279 281 281 280 281 282 283 283 283 284 284 284 284 283 282 282 283 283 284 284 283 282 281 280 280 282 284 287 289 291 293 294 294 294
264 264 264 265 265 265 265 266 266 267 267 267 269 270 271 273 274 274 274 273 273 272 272 273 272 272 273 274 274 274 274 274 274 276 277 278 278 278 279 280 281 281 282 284 283 282 282 279 280 284 287 283 280 279 279 279 279 280 280 280 281 281 283 284 283 282 284 282 281 282 282 283 284 284 284 284 282 280 281 283 284 286 289 291 293 294 294 294
264 264 264 265 266 266 266 267 267 267 267 267 267 268 270 271 273 274 274 273 272 272 272 272 272 271 272 273 272 273 273 273 273 275 277 277 277 278 279 280 281 282 283 284 283 283 281 280 284 289 285 280 280 281 280 280 280 280 280 281 281 282 284 284 281 282 282 281 281 282 282 282 284 284 285 285 283 283 283 284 285 287 290 292 293 293 293 294
264 264 264 264 265 266 266 267 267 267 268 268 268 268 270 271 272 274 274 273 271 271 271 271 271 272 271 271 271 271 272 272 273 274 275 276 276 278 278 278 280 281 281 281 282 283 281 282 289 289 284 281 281 281 282 282 282 282 282 282 281 283 285 284 281 281 281 281 282 282 281 282 283 284 284 283 283 284 286 288 288 289 294 295 293 292 292 291
264 264 264 264 265 265 265 266 267 267 268 268 269 269 270 271 273 274 275 275 273 270 270 271 271 271 270 270 270 270 270 272 273 272 273 275 275 276 276 277 278 278 278 280 282 281 281 284 287 285 283 283 282 282 282 283 283 283 283 282 284 287 286 283 282 282 282 282 282 283 283 282 283 283 282 283 283 283 289 293 291 293 297 294 290 290 291 290
264 264 264 265 265 265 266 266 267 267 268 268 269 270 270 271 273 274 275 276 275 272 271 272 271 270 270 270 270 270 271 272 272 272 273 273 273 273 274 276 276 275 277 280 280 279 280 283 284 283 283 283 282 282 282 283 283 283 282 283 286 287 284 282 283 284 283 282 283 285 285 283 282 282 281 281 282 284 287 288 291 298 299 292 289 290 290 290
266 265 265 265 265 265 266 266 267 268 268 268 269 269 270 271 272 274 275 276 276 274 272 271 271 271 271 272 272 272 273 272 272 274 273 272 272 273 273 274 273 275 277 278 278 277 278 281 284 284 283 282 281 281 282 283 284 283 282 284 286 285 283 284 285 285 285 284 285 286 286 285 285 284 282 281 281 284 285 286 293 298 297 294 292 292 291 290
268 268 268 267 266 266 266 266 267 268 268 268 268 269 269 270 272 273 275 276 276 275 273 270 270 271 272 274 276 275 274 274 275 275 274 272 272 272 272 272 273 275 276 276 276 276 278 281 282 282 281 281 280 282 283 284 283 283 283 284 284 283 284 284 285 286 286 287 286 285 287 289 288 286 287 288 285 283 284 291 300 296 293 294 294 294 292 288
268 269 270 270 269 268 267 266 267 267 268 268 268 268 269 270 271 272 274 275 275 276 274 271 270 272 273 274 276 276 278 280 279 276 273 272 271 270 270 271 273 273 274 275 274 275 278 280 279 279 279 279 280 282 284 283 282 281 283 284 283 282 283 283 284 285 285 286 285 284 288 292 291 291 294 292 288 286 289 299 305 297 291 291 292 292 288 285
267 268 269 270 270 269 268 267 267 267 268 268 268 268 268 269 270 271 273 274 275 276 276 275 275 276 277 278 278 278 280 282 281 278 275 272 270 269 269 270 271 271 271 273 273 275 277 277 277 277 277 278 280 282 282 280 280 281 282 282 282 282 282 283 283 283 284 284 282 284 290 292 291 293 294 290 287 289 295 303 306 300 293 290 290 287 283 282
267 268 268 268 268 269 269 268 268 267 267 268 268 268 268 268 269 270 270 270 271 273 276 279 282 283 283 284 284 284 282 280 277 277 276 273 271 270 269 268 269 269 270 270 272 274 275 276 276 275 275 277 279 279 279 279 278 279 280 281 282 282 282 282 281 281 282 281 281 287 294 294 291 290 289 288 291 295 299 306 307 301 296 292 289 286 284 284
266 267 267 267 267 267 268 268 268 268 268 267 267 268 268 267 268 269 267 267 269 273 279 283 285 287 287 287 286 285 284 282 279 277 276 275 274 273 270 268 268 268 269 269 269 271 273 274 273 273 275 277 276 276 276 276 276 277 279 280 281 281 281 280 279 280 280 280 284 290 293 291 288 286 288 291 295 298 300 306 306 300 296 291 287 284 283 286
266 266 266 266 266 266 266 267 268 268 268 267 267 267 267 267 267 265 266 268 272 276 280 284 287 289 289 288 286 284 284 283 283 281 278 277 275 272 271 270 269 268 267 267 268 269 270 271 272 273 274 274 274 274 274 274 274 276 277 279 280 280 279 278 277 277 279 281 287 290 288 285 282 282 287 293 297 298 300 305 304 299 296 290 286 282 283 287
267 267 266 266 266 266 265 265 266 267 266 267 266 266 266 266 264 264 268 272 275 277 281 284 286 287 287 287 286 285 285 284 283 282 280 278 275 272 271 271 271 269 268 268 268 269 269 270 272 272 271 272 274 274 274 274 273 274 274 275 276 276 276 276 276 277 279 282 286 286 285 282 280 281 286 291 295 295 297 302 302 298 296 292 288 286 287 290
266 267 267 266 266 266 266 265 265 265 266 265 265 265 264 263 265 269 270 271 274 278 281 282 283 284 285 286 286 286 285 283 283 282 280 279 277 274 273 273 273 274 274 273 272 270 269 268 268 269 271 273 273 273 273 272 271 271 270 270 271 272 273 274 277 280 282 282 283 283 281 280 281 285 289 291 291 290 294 300 301 299 297 293 290 290 291 289
266 266 266 266 265 265 266 267 266 265 265 264 264 265 264 263 267 272 271 270 272 275 277 278 280 282 283 284 284 284 284 284 283 282 281 280 278 276 275 274 275 276 276 276 273 272 271 270 269 270 272 271 270 270 270 270 269 268 268 268 268 268 270 274 278 280 281 281 281 280 279 280 284 289 291 291 289 289 293 299 300 298 296 292 292 292 289 283
267 268 267 266 265 265 266 267 268 267 266 265 264 264 264 264 267 269 269 270 271 270 273 275 276 277 277 278 279 281 282 283 283 283 281 278 276 275 274 273 274 276 277 276 275 275 274 272 271 271 271 269 268 267 267 268 268 268 268 267 268 270 272 274 276 276 277 278 278 278 280 283 287 289 290 290 290 291 295 300 299 296 293 291 290 289 284 278
266 267 268 266 265 266 266 266 267 267 266 265 263 261 262 263 265 267 269 270 271 272 273 272 272 273 274 274 275 276 279 280 280 280 279 278 277 276 274 273 273 274 275 275 276 276 275 273 270 269 269 267 267 267 266 267 268 267 267 268 270 272 273 273 273 272 273 274 275 278 281 284 287 287 287 288 288 291 297 301 300 297 294 290 286 283 279 274
263 264 266 266 266 266 266 266 265 265 265 266 264 263 264 263 263 265 267 269 272 273 273 272 272 272 273 273 274 274 275 276 276 277 277 277 278 278 278 277 275 274 273 274 276 274 273 272 269 268 269 268 268 268 267 266 266 266 267 269 271 272 270 271 272 272 272 272 274 277 280 283 286 286 288 289 289 293 299 300 301 301 297 290 283 279 276 273
262 262 262 264 267 267 266 266 265 264 264 264 265 265 265 264 262 264 265 267 269 270 271 272 272 272 272 272 273 272 272 273 273 274 276 276 276 276 277 278 278 276 275 274 274 272 272 273 270 268 268 269 269 269 268 266 266 267 269 270 270 270 270 270 271 271 272 274 275 276 278 281 283 284 287 288 289 294 298 300 303 303 297 288 281 275 272 274
261 261 260 259 262 264 265 265 265 265 263 262 264 265 266 266 265 264 265 265 265 267 269 270 270 271 270 270 271 272 272 273 273 274 274 274 274 274 275 276 277 277 276 274 273 273 271 271 269 266 266 268 268 268 268 269 270 271 271 269 268 268 269 269 270 271 273 274 276 277 278 279 281 283 283 283 286 292 296 300 302 301 294 286 280 276 275 278
260 261 260 258 257 259 261 262 261 260 260 261 264 265 265 265 265 265 266 266 264 264 265 267 268 268 269 269 270 271 272 272 272 273 273 273 274 274 275 276 277 277 276 275 274 273 271 270 269 268 267 267 267 268 270 272 272 270 269 268 268 268 268 269 270 271 272 273 275 278 278 276 278 279 278 279 285 291 294 297 298 297 292 287 284 283 282 283
259 260 260 258 256 256 257 258 258 257 258 259 261 263 263 263 264 265 266 265 263 262 263 263 264 265 267 268 269 270 271 272 272 272 272 272 273 274 275 275 276 274 274 273 273 273 272 271 270 269 268 268 269 271 272 271 269 267 266 266 266 267 268 268 269 271 272 272 275 279 278 275 276 277 278 282 287 290 293 294 294 293 288 287 288 287 286 286
259 259 259 258 256 255 255 257 258 258 259 259 259 261 261 261 262 263 263 263 262 262 261 261 261 263 264 266 268 270 270 271 272 272 272 272 271 272 273 273 273 273 272 272 272 271 271 270 269 268 269 269 269 268 267 266 266 264 264 265 266 268 268 268 270 272 273 273 276 277 275 274 277 279 281 285 287 290 292 291 291 289 285 286 287 286 285 285
259 259 259 258 257 255 255 255 256 256 257 258 259 260 261 261 262 262 262 262 261 262 262 263 263 263 264 265 266 267 268 269 271 271 272 272 272 272 272 272 272 272 273 274 273 271 269 267 266 267 267 266 264 264 263 264 265 265 266 270 271 271 271 271 271 272 272 272 273 273 270 272 279 281 281 285 287 288 289 288 289 288 284 285 287 285 283 280
259 259 258 257 257 256 255 255 256 256 256 256 256 258 259 261 261 261 261 261 261 261 262 263 264 265 266 266 266 266 266 267 267 269 270 271 272 273 273 273 273 274 276 276 274 271 266 263 263 263 262 261 261 263 265 267 268 269 272 273 271 271 271 271 271 271 271 269 269 269 269 273 280 282 282 285 286 285 284 285 286 286 285 287 288 284 279 275
260 259 258 258 257 256 256 255 256 257 257 256 256 256 256 258 258 259 261 262 262 263 263 262 263 263 264 265 265 265 265 265 266 267 268 269 271 272 273 274 275 276 276 274 271 267 263 260 260 261 262 262 263 265 269 270 270 269 269 267 266 267 267 267 268 268 268 269 268 268 270 275 280 281 282 284 284 283 282 283 283 282 282 284 284 280 277 275
260 260 259 259 258 258 257 256 255 256 256 256 257 256 256 257 257 256 258 261 262 263 264 262 262 262 262 262 263 263 264 265 266 266 267 268 271 272 273 273 274 273 272 270 268 265 263 261 262 263 264 266 267 268 269 268 266 265 265 264 265 265 264 265 266 265 268 271 270 269 273 278 280 280 280 280 281 282 283 282 281 280 280 280 279 278 277 277
261 261 260 260 260 260 259 258 257 257 258 258 258 257 257 257 257 256 256 257 259 261 262 262 262 262 263 263 265 265 265 265 265 265 266 267 268 269 269 268 267 266 265 265 264 265 266 266 265 265 266 266 267 266 265 263 263 264 265 264 264 264 263 263 264 267 271 272 271 272 276 279 281 282 280 277 278 280 281 280 280 281 281 280 278 277 277 277
261 262 262 261 261 261 261 260 259 259 259 259 258 258 257 256 256 256 256 256 257 258 260 261 262 262 263 265 267 267 267 267 267 267 267 267 266 266 265 264 263 263 262 261 262 266 271 270 268 267 267 267 267 266 263 262 262 263 264 263 262 262 263 265 268 271 271 270 272 276 278 278 281 283 280 278 279 280 280 279 279 280 280 279 277 276 274 274
261 262 262 262 261 261 261 261 261 260 260 260 260 259 258 256 256 256 256 257 258 258 259 260 261 262 263 264 265 266 266 267 268 268 268 269 269 268 268 267 265 265 264 262 262 266 272 274 272 270 269 267 265 265 264 263 262 261 261 262 263 264 265 268 270 271 270 270 274 279 279 278 279 281 282 281 281 280 279 278 278 278 277 277 276 274 272 272
261 260 260 260 260 260 261 260 260 260 260 260 261 261 261 259 258 257 257 258 259 260 260 261 262 262 262 262 263 265 266 267 268 269 269 269 269 268 269 268 266 265 264 263 263 265 270 273 272 271 271 269 266 267 266 265 265 263 262 264 266 267 268 268 270 270 271 272 275 278 280 279 278 280 281 281 280 278 277 276 275 274 273 274 276 277 276 277
261 260 260 259 258 258 259 259 260 261 261 261 261 262 263 262 261 261 261 260 260 261 261 261 262 262 262 262 263 264 265 267 269 269 269 269 270 269 270 270 269 268 267 266 266 267 269 271 271 270 271 270 268 268 269 269 269 266 263 262 263 266 269 270 270 269 271 272 274 276 278 279 280 280 278 278 278 276 275 276 276 273 271 273 278 282 284 285
260 260 259 259 258 257 257 258 258 259 260 261 262 262 263 263 263 263 262 262 261 262 262 263 263 264 264 264 264 265 267 267 268 268 268 268 270 270 271 271 271 271 270 270 270 270 271 273 273 272 272 272 270 270 273 274 270 266 266 267 267 269 271 272 270 270 271 274 275 277 279 281 280 276 272 275 276 274 276 282 284 281 277 279 282 285 287 289
Height
5894 5894 5894 5894 5894 5894 5894 5895 5895 5895 5895 5895 5894 5894 5894 5894 5893 5893 5893 5893 5892 5892 5892 5892 5891 5891 5891 5890 5890 5890 5889 5889 5888 5888 5887 5887 5886 5886 5885 5884 5884 5883 5882 5881 5880 5880 5879 5878 5877 5876 5875 5874 5873 5872 5871 5870 5869 5868 5868 5867 5866 5865 5864 5864 5863 5862 5861 5860 5859 5858 5857 5857 5856 5855 5854 5853 5852 5851 5850 5849 5847 5846 5845 5844 5843 5843 5842 5841
5892 5892 5892 5892 5893 5893 5893 5893 5893 5893 5893 5893 5893 5893 5893 5892 5892 5892 5892 5891 5891 5891 5890 5890 5890 5889 5889 5889 5888 5888 5888 5887 5887 5886 5886 5886 5885 5885 5884 5883 5883 5882 5881 5880 5879 5878 5878 5877 5876 5875 5874 5874 5873 5872 5871 5870 5869 5868 5867 5866 5865 5864 5863 5863 5862 5861 5860 5859 5858 5857 5856 5855 5854 5853 5852 5851 5850 5849 5848 5847 5846 5845 5844 5843 5842 5841 5840 5839
5889 5890 5890 5890 5890 5890 5891 5891 5891 5891 5891 5891 5891 5891 5891 5891 5890 5890 5890 5890 5889 5889 5889 5888 5888 5888 5887 5887 5886 5886 5886 5886 5885 5885 5884 5884 5884 5883 5882 5882 5881 5881 5880 5879 5878 5877 5876 5875 5874 5874 5873 5872 5872 5871 5870 5869 5868 5867 5866 5865 5864 5863 5862 5861 5860 5860 5858 5857 5856 5855 5854 5853 5852 5851 5850 5849 5848 5847 5846 5846 5845 5844 5842 5842 5840 5839 5839 5838
5887 5887 5887 5888 5888 5888 5888 5888 5888 5889 5889 5889 5889 5889 5888 5888 5888 5888 5888 5888 5887 5887 5887 5886 5886 5886 5885 5885 5884 5884 5884 5883 5883 5883 5883 5882 5882 5881 5881 5880 5880 5879 5878 5877 5877 5876 5875 5874 5873 5872 5872 5871 5870 5869 5868 5867 5866 5866 5865 5864 5863 5862 5861 5860 5859 5858 5857 5856 5855 5854 5853 5852 5850 5849 5848 5847 5846 5845 5844 5843 5842 5842 5841 5840 5839 5838 5837 5836
5884 5884 5885 5885 5885 5885 5886 5886 5886 5886 5886 5886 5886 5886 5886 5886 5886 5886 5886 5885 5885 5885 5884 5884 5883 5883 5883 5882 5882 5882 5881 5881 5881 5881 5880 5880 5879 5879 5879 5878 5878 5877 5877 5876 5875 5874 5873 5872 5871 5870 5870 5869 5868 5868 5867 5865 5865 5864 5863 5862 5862 5861 5860 5859 5858 5856 5855 5854 5853 5852 5852 5850 5849 5848 5846 5845 5844 5843 5842 5841 5840 5839 5838 5838 5837 5836 5835 5834
5881 5881 5882 5882 5882 5882 5883 5883 5883 5883 5883 5883 5883 5883 5883 5883 5883 5883 5883 5883 5882 5882 5882 5881 5881 5880 5880 5880 5879 5879 5879 5878 5879 5878 5878 5877 5877 5877 5876 5876 5876 5875 5875 5874 5873 5872 5871 5870 5870 5869 5868 5867 5866 5866 5865 5864 5863 5862 5861 5861 5860 5859 5858 5857 5856 5855 5854 5853 5851 5851 5850 5849 5848 5846 5844 5842 5841 5841 5840 5839 5838 5837 5836 5835 5834 5833 5833 5832
5878 5878 5879 5879 5879 5879 5880 5880 5880 5880 5880 5880 5880 5880 5880 5880 5880 5880 5880 5880 5880 5879 5879 5879 5878 5878 5877 5877 5877 5876 5876 5876 5876 5876 5875 5875 5874 5874 5874 5874 5873 5873 5872 5872 5871 5870 5869 5869 5868 5867 5866 5865 5864 5863 5863 5862 5861 5860 5859 5859 5858 5857 5856 5855 5855 5853 5852 5851 5850 5849 5848 5847 5846 5845 5843 5840 5839 5839 5838 5837 5836 5835 5834 5833 5832 5831 5830 5830
5876 5876 5876 5876 5876 5876 5876 5877 5877 5877 5877 5877 5877 5877 5877 5877 5877 5877 5877 5877 5877 5877 5876 5876 5876 5875 5875 5874 5874 5874 5874 5873 5873 5873 5873 5872 5872 5872 5871 5871 5871 5871 5870 5869 5869 5868 5867 5866 5865 5865 5864 5863 5862 5861 5860 5860 5859 5859 5857 5857 5856 5855 5854 5853 5852 5851 5850 5849 5848 5847 5846 5845 5845 5844 5841 5837 5837 5838 5836 5835 5834 5833 5832 5831 5830 5829 5828 5827
5873 5873 5873 5873 5873 5873 5873 5873 5873 5874 5874 5874 5874 5874 5873 5873 5873 5873 5873 5874 5874 5874 5873 5873 5873 5872 5872 5872 5872 5872 5871 5870 5871 5870 5870 5870 5870 5870 5869 5869 5868 5868 5867 5867 5866 5866 5865 5864 5863 5863 5862 5861 5860 5859 5858 5857 5856 5856 5855 5854 5853 5852 5851 5850 5850 5848 5848 5847 5846 5845 5844 5844 5843 5842 5839 5836 5836 5836 5834 5833 5832 5831 5830 5829 5827 5827 5825 5824
5870 5870 5870 5870 5870 5870 5870 5870 5870 5870 5870 5870 5871 5870 5870 5870 5870 5870 5870 5870 5870 5870 5870 5869 5869 5869 5869 5869 5869 5869 5868 5868 5868 5867 5867 5867 5867 5867 5867 5866 5866 5865 5865 5864 5864 5863 5862 5861 5861 5860 5859 5858 5858 5856 5856 5855 5853 5853 5852 5852 5851 5849 5848 5848 5847 5846 5845 5844 5843 5842 5841 5841 5841 5840 5837 5834 5834 5833 5832 5831 5830 5829 5827 5826 5825 5824 5823 5821
5866 5866 5867 5867 5867 5867 5867 5867 5867 5867 5867 5867 5867 5867 5867 5867 5866 5866 5866 5866 5866 5866 5865 5865 5865 5865 5865 5865 5866 5866 5865 5865 5865 5864 5864 5864 5864 5864 5864 5863 5863 5862 5862 5862 5861 5860 5859 5859 5858 5857 5856 5855 5855 5853 5853 5852 5851 5850 5849 5848 5848 5846 5845 5845 5843 5843 5842 5841 5840 5838 5839 5839 5839 5838 5835 5833 5832 5830 5830 5829 5827 5826 5825 5824 5822 5821 5820 5819
5863 5863 5863 5863 5863 5864 5864 5864 5864 5863 5863 5863 5863 5864 5864 5863 5863 5862 5862 5862 5862 5861 5861 5861 5861 5861 5860 5862 5862 5862 5862 5862 5861 5861 5861 5861 5861 5861 5860 5860 5860 5859 5859 5858 5858 5857 5856 5855 5855 5854 5853 5852 5851 5850 5849 5849 5847 5847 5846 5845 5844 5843 5842 5842 5840 5839 5838 5838 5837 5834 5835 5838 5836 5835 5834 5831 5829 5828 5827 5827 5824 5823 5822 5821 5820 5818 5817 5816
5859 5859 5860 5860 5860 5860 5860 5860 5860 5860 5860 5859 5859 5859 5860 5860 5860 5859 5858 5858 5858 5858 5857 5857 5857 5856 5856 5858 5859 5858 5858 5858 5857 5858 5857 5857 5857 5857 5857 5857 5856 5856 5855 5855 5854 5854 5853 5852 5851 5850 5850 5849 5848 5846 5846 5846 5844 5843 5842 5840 5840 5839 5839 5840 5838 5836 5834 5834 5833 5830 5830 5836 5834 5831 5832 5830 5826 5826 5825 5824 5822 5820 5819 5818 5817 5815 5814 5812
5855 5856 5856 5856 5856 5856 5856 5856 5856 5856 5856 5855 5855 5855 5856 5856 5856 5855 5855 5854 5854 5854 5853 5853 5852 5852 5851 5854 5855 5854 5853 5853 5853 5853 5853 5854 5854 5854 5854 5853 5852 5852 5851 5851 5850 5850 5849 5848 5847 5847 5847 5845 5844 5843 5842 5841 5841 5840 5837 5836 5836 5835 5836 5836 5835 5832 5831 5830 5829 5825 5824 5832 5833 5827 5827 5827 5824 5823 5823 5822 5820 5817 5816 5815 5813 5812 5810 5809
5852 5852 5852 5852 5852 5852 5852 5852 5852 5852 5852 5852 5851 5851 5851 5852 5852 5852 5851 5851 5850 5849 5849 5849 5848 5847 5847 5850 5851 5850 5850 5849 5848 5849 5849 5850 5850 5850 5850 5849 5848 5848 5847 5846 5846 5846 5845 5845 5844 5843 5843 5842 5840 5839 5838 5837 5838 5837 5832 5832 5832 5832 5832 5831 5830 5829 5827 5826 5825 5821 5819 5825 5831 5827 5823 5822 5821 5820 5820 5819 5817 5815 5814 5812 5810 5809 5807 5805
5848 5848 5848 5849 5849 5848 5848 5848 5848 5849 5849 5848 5847 5846 5847 5847 5847 5847 5847 5847 5846 5845 5845 5845 5845 5843 5842 5846 5848 5846 5846 5845 5844 5845 5846 5846 5846 5846 5845 5844 5844 5843 5842 5842 5842 5842 5841 5840 5840 5839 5839 5839 5838 5836 5834 5832 5833 5832 5828 5828 5829 5828 5827 5825 5825 5825 5823 5821 5820 5817 5815 5818 5824 5825 5822 5818 5817 5816 5816 5816 5815 5812 5810 5809 5807 5806 5804 5802
5843 5844 5844 5844 5844 5844 5844 5844 5845 5845 5845 5844 5843 5842 5842 5841 5842 5842 5843 5843 5842 5842 5841 5840 5841 5839 5838 5841 5843 5843 5842 5840 5841 5842 5842 5842 5842 5841 5841 5840 5840 5839 5838 5838 5837 5837 5837 5835 5835 5835 5834 5835 5835 5832 5828 5828 5830 5827 5823 5823 5825 5825 5823 5821 5820 5819 5819 5817 5815 5812 5810 5813 5817 5819 5819 5817 5814 5812 5812 5812 5811 5809 5806 5804 5803 5802 5800 5798
5839 5839 5839 5840 5840 5840 5840 5840 5841 5841 5841 5841 5839 5838 5837 5836 5837 5837 5838 5838 5838 5838 5837 5836 5836 5834 5834 5837 5838 5838 5838 5837 5837 5838 5838 5838 5838 5837 5836 5836 5835 5835 5834 5833 5833 5833 5832 5830 5830 5830 5831 5832 5831 5828 5823 5823 5825 5822 5820 5818 5818 5819 5819 5819 5815 5813 5813 5811 5808 5807 5805 5807 5811 5812 5814 5815 5811 5808 5808 5808 5807 5805 5803 5800 5798 5798 5796 5794
5834 5835 5835 5835 5835 5835 5835 5835 5836 5837 5837 5836 5835 5834 5833 5831 5831 5832 5833 5833 5833 5833 5832 5832 5832 5830 5830 5833 5833 5832 5833 5833 5833 5834 5835 5835 5834 5833 5832 5831 5831 5830 5829 5829 5828 5828 5827 5825 5825 5826 5828 5828 5825 5823 5820 5819 5819 5818 5817 5814 5813 5813 5813 5816 5811 5807 5808 5804 5801 5802 5799 5800 5804 5805 5808 5810 5808 5805 5804 5804 5803 5801 5799 5797 5794 5793 5791 5790
5830 5830 5830 5830 5831 5831 5830 5830 5831 5832 5832 5832 5831 5830 5828 5827 5827 5826 5827 5828 5828 5828 5827 5826 5827 5827 5826 5828 5828 5827 5828 5829 5829 5831 5831 5831 5830 5829 5828 5827 5827 5825 5825 5825 5823 5823 5822 5818 5819 5824 5825 5823 5819 5818 5817 5815 5814 5813 5812 5810 5809 5807 5808 5811 5806 5802 5803 5797 5795 5797 5793 5793 5797 5799 5801 5804 5802 5801 5801 5800 5799 5798 5795 5793 5791 5788 5787 5785
5825 5825 5825 5826 5826 5825 5825 5826 5826 5827 5827 5827 5827 5825 5823 5823 5822 5821 5821 5822 5822 5822 5822 5821 5820 5821 5823 5823 5822 5822 5822 5824 5826 5827 5827 5827 5826 5824 5824 5823 5822 5821 5821 5820 5817 5817 5816 5813 5817 5822 5820 5817 5814 5813 5812 5810 5809 5808 5807 5805 5804 5804 5804 5804 5800 5798 5798 5791 5790 5791 5787 5787 5792 5794 5796 5798 5797 5796 5797 5797 5795 5793 5792 5789 5787 5784 5782 5781
5820 5820 5820 5821 5821 5820 5820 5820 5821 5821 5821 5822 5822 5821 5820 5818 5817 5816 5815 5814 5816 5818 5817 5815 5815 5816 5818 5817 5817 5818 5817 5819 5822 5824 5823 5822 5822 5821 5819 5819 5818 5816 5816 5815 5813 5811 5808 5809 5815 5818 5814 5812 5811 5809 5808 5806 5804 5803 5803 5800 5799 5800 5800 5797 5794 5794 5792 5786 5784 5784 5780 5781 5787 5789 5791 5793 5793 5792 5791 5792 5791 5789 5788 5785 5781 5779 5778 5777
5814 5814 5815 5815 5815 5815 5815 5815 5815 5816 5816 5816 5816 5816 5815 5814 5813 5811 5809 5806 5807 5812 5812 5811 5810 5809 5811 5812 5812 5812 5812 5815 5817 5819 5820 5818 5818 5818 5814 5814 5815 5811 5810 5811 5810 5806 5802 5806 5812 5812 5809 5808 5806 5805 5804 5802 5800 5798 5798 5795 5794 5797 5795 5789 5788 5789 5787 5782 5779 5778 5773 5774 5782 5784 5786 5788 5788 5789 5788 5786 5785 5784 5784 5780 5776 5774 5773 5772
5808 5809 5809 5810 5810 5809 5810 5810 5809 5810 5810 5811 5811 5810 5810 5809 5808 5806 5804 5799 5796 5802 5808 5807 5804 5803 5805 5806 5807 5806 5807 5810 5812 5814 5817 5815 5813 5813 5810 5810 5809 5805 5806 5808 5805 5799 5798 5802 5806 5806 5805 5804 5801 5800 5801 5799 5795 5793 5793 5792 5791 5792 5789 5784 5783 5783 5781 5777 5774 5774 5765 5764 5775 5777 5779 5784 5784 5785 5786 5783 5781 5779 5777 5774 5771 5770 5768 5766
5803 5803 5803 5804 5804 5804 5805 5804 5804 5805 5805 5805 5805 5805 5804 5803 5803 5801 5799 5793 5785 5791 5801 5801 5798 5798 5800 5801 5802 5803 5803 5804 5806 5809 5812 5810 5809 5808 5806 5805 5803 5801 5802 5803 5798 5793 5794 5798 5800 5800 5799 5798 5796 5794 5797 5795 5790 5786 5787 5790 5789 5786 5783 5780 5778 5776 5774 5771 5769 5770 5760 5753 5765 5771 5771 5778 5780 5780 5780 5779 5779 5775 5769 5766 5765 5764 5763 5761
5797 5797 5798 5798 5798 5798 5799 5799 5799 5799 5799 5800 5799 5799 5798 5797 5798 5796 5794 5788 5776 5778 5791 5794 5792 5793 5796 5798 5798 5798 5797 5797 5802 5804 5804 5804 5804 5802 5800 5798 5798 5797 5797 5796 5792 5786 5789 5795 5795 5794 5792 5791 5790 5790 5792 5791 5785 5780 5781 5786 5784 5780 5779 5776 5774 5771 5768 5766 5762 5764 5762 5749 5749 5760 5765 5768 5771 5773 5775 5775 5775 5772 5765 5761 5759 5759 5757 5755
5792 5792 5792 5792 5792 5792 5793 5793 5793 5793 5793 5793 5792 5792 5792 5792 5792 5791 5790 5783 5769 5767 5777 5782 5785 5789 5792 5795 5796 5794 5792 5793 5797 5797 5797 5797 5797 5796 5794 5792 5793 5792 5791 5789 5784 5781 5786 5790 5789 5788 5787 5785 5784 5786 5787 5786 5781 5775 5776 5779 5778 5776 5774 5771 5770 5766 5763 5763 5754 5755 5764 5752 5737 5746 5756 5758 5761 5764 5768 5772 5771 5768 5764 5759 5755 5754 5752 5750
5786 5787 5787 5787 5786 5786 5787 5787 5787 5787 5787 5786 5787 5786 5786 5786 5786 5786 5785 5776 5763 5759 5763 5769 5778 5784 5787 5789 5791 5791 5790 5791 5791 5790 5790 5790 5789 5789 5788 5787 5786 5785 5785 5782 5777 5778 5781 5783 5783 5782 5780 5779 5780 5781 5781 5780 5776 5772 5772 5772 5772 5771 5769 5766 5764 5761 5759 5756 5746 5748 5763 5754 5732 5735 5745 5745 5750 5757 5762 5767 5767 5763 5760 5757 5753 5749 5747 5747
5780 5780 5781 5781 5780 5780 5781 5781 5781 5780 5780 5780 5780 5780 5780 5781 5780 5781 5779 5767 5755 5753 5757 5762 5770 5777 5781 5783 5784 5785 5785 5786 5785 5784 5784 5783 5782 5782 5781 5781 5779 5776 5778 5776 5772 5774 5774 5775 5777 5775 5774 5775 5776 5776 5775 5774 5771 5768 5767 5766 5766 5765 5763 5762 5758 5756 5756 5746 5740 5747 5757 5750 5730 5726 5733 5734 5741 5750 5755 5760 5760 5758 5755 5752 5750 5745 5742 5741
5773 5774 5775 5775 5775 5774 5774 5775 5775 5774 5774 5774 5774 5774 5774 5773 5774 5775 5767 5754 5750 5754 5758 5760 5763 5768 5773 5776 5776 5776 5776 5776 5778 5779 5778 5777 5777 5776 5773 5774 5772 5769 5770 5769 5766 5768 5769 5769 5769 5768 5770 5770 5770 5770 5769 5768 5766 5764 5763 5761 5761 5759 5757 5756 5751 5751 5749 5737 5738 5748 5751 5747 5729 5717 5722 5728 5733 5739 5746 5754 5753 5752 5751 5748 5746 5743 5738 5735
5766 5767 5768 5769 5768 5768 5768 5769 5768 5768 5768 5767 5767 5768 5766 5766 5769 5764 5751 5746 5752 5757 5758 5758 5759 5761 5763 5766 5768 5768 5768 5768 5769 5770 5771 5771 5770 5769 5767 5767 5766 5763 5761 5760 5760 5763 5763 5761 5761 5763 5765 5764 5763 5764 5763 5763 5761 5760 5759 5756 5755 5752 5749 5748 5744 5746 5743 5733 5736 5743 5742 5740 5725 5715 5721 5726 5727 5729 5736 5746 5747 5745 5746 5743 5742 5739 5735 5732
5759 5759 5761 5762 5762 5762 5762 5762 5762 5762 5761 5761 5761 5760 5760 5760 5758 5751 5745 5748 5752 5753 5756 5756 5755 5755 5755 5756 5758 5760 5761 5761 5762 5763 5763 5763 5763 5762 5762 5760 5759 5757 5754 5754 5755 5756 5755 5755 5756 5756 5757 5758 5758 5757 5756 5757 5756 5755 5754 5752 5750 5746 5741 5739 5736 5738 5739 5733 5733 5735 5733 5726 5715 5715 5723 5725 5724 5722 5728 5739 5740 5739 5739 5737 5735 5732 5730 5729
5751 5752 5753 5755 5756 5755 5755 5755 5755 5754 5754 5755 5754 5753 5753 5750 5746 5745 5746 5748 5748 5747 5751 5751 5750 5750 5749 5749 5750 5751 5752 5753 5755 5756 5755 5755 5755 5755 5755 5754 5754 5752 5750 5750 5749 5748 5746 5747 5750 5749 5751 5754 5752 5751 5750 5749 5750 5749 5747 5746 5743 5740 5735 5731 5731 5732 5731 5729 5728 5727 5723 5713 5706 5713 5720 5722 5722 5717 5722 5733 5733 5732 5733 5730 5728 5726 5725 5723
5744 5744 5745 5747 5748 5748 5748 5748 5747 5747 5746 5745 5746 5745 5744 5740 5740 5743 5742 5743 5746 5744 5743 5744 5744 5745 5744 5742 5742 5743 5744 5743 5745 5747 5747 5748 5746 5746 5748 5748 5748 5747 5746 5744 5742 5741 5738 5738 5743 5743 5745 5748 5745 5745 5744 5742 5742 5741 5740 5738 5735 5734 5730 5727 5729 5728 5722 5721 5719 5715 5710 5704 5704 5709 5712 5712 5713 5711 5717 5728 5728 5726 5726 5723 5721 5720 5718 5715
5736 5736 5737 5738 5740 5742 5743 5741 5739 5739 5737 5736 5738 5736 5734 5734 5737 5739 5737 5736 5739 5739 5739 5739 5739 5738 5736 5736 5735 5736 5737 5735 5736 5737 5736 5737 5738 5739 5740 5740 5741 5741 5740 5737 5736 5735 5731 5731 5736 5735 5736 5739 5738 5738 5737 5735 5734 5733 5732 5729 5726 5728 5728 5724 5723 5721 5716 5713 5709 5704 5700 5700 5703 5705 5704 5702 5702 5704 5711 5719 5721 5720 5718 5717 5715 5713 5710 5707
5728 5728 5728 5729 5733 5736 5736 5734 5732 5730 5727 5726 5725 5724 5727 5732 5733 5732 5730 5729 5730 5732 5733 5732 5731 5730 5729 5729 5729 5731 5731 5728 5728 5727 5726 5727 5728 5730 5732 5732 5735 5735 5733 5731 5729 5729 5725 5724 5728 5727 5725 5728 5729 5729 5730 5728 5726 5724 5722 5721 5722 5724 5723 5717 5714 5714 5711 5704 5700 5698 5694 5695 5699 5697 5697 5697 5695 5700 5707 5711 5713 5712 5711 5710 5707 5704 5703 5701
5719 5719 5718 5720 5726 5727 5726 5726 5723 5721 5719 5714 5709 5714 5724 5729 5729 5726 5723 5725 5724 5723 5723 5722 5723 5724 5722 5721 5721 5723 5724 5721 5720 5719 5718 5719 5719 5722 5724 5723 5725 5727 5727 5725 5722 5722 5718 5715 5719 5720 5716 5718 5720 5720 5722 5721 5717 5714 5715 5717 5718 5716 5713 5710 5706 5704 5703 5696 5693 5696 5692 5691 5693 5689 5687 5688 5687 5693 5702 5704 5705 5705 5703 5701 5699 5696 5695 5694
5710 5709 5708 5714 5718 5717 5717 5717 5713 5711 5709 5702 5698 5707 5717 5720 5723 5720 5716 5720 5719 5714 5713 5713 5714 5715 5714 5714 5712 5712 5713 5712 5713 5712 5711 5711 5711 5715 5718 5716 5716 5717 5719 5718 5713 5713 5712 5706 5709 5712 5708 5709 5712 5711 5710 5710 5708 5708 5710 5712 5711 5706 5703 5702 5698 5695 5695 5690 5686 5691 5689 5686 5687 5686 5684 5680 5678 5685 5693 5696 5697 5698 5696 5694 5692 5689 5688 5687
5702 5698 5698 5709 5712 5707 5707 5707 5703 5700 5695 5691 5692 5701 5708 5711 5714 5712 5709 5712 5711 5707 5706 5705 5705 5704 5705 5707 5705 5703 5703 5703 5704 5704 5703 5703 5703 5706 5710 5709 5708 5709 5711 5709 5704 5705 5704 5696 5696 5701 5701 5699 5701 5701 5700 5701 5703 5703 5702 5702 5701 5698 5694 5691 5689 5688 5689 5684 5680 5683 5683 5680 5680 5683 5682 5676 5675 5681 5686 5688 5689 5690 5690 5688 5685 5683 5682 5681
5693 5686 5687 5701 5703 5698 5699 5696 5691 5687 5683 5683 5688 5694 5700 5701 5701 5702 5702 5702 5702 5700 5699 5698 5698 5695 5695 5698 5697 5695 5695 5693 5694 5696 5694 5695 5696 5697 5700 5701 5701 5702 5702 5699 5696 5696 5693 5687 5685 5690 5692 5690 5691 5693 5694 5696 5697 5693 5691 5691 5689 5689 5687 5681 5680 5682 5681 5676 5674 5676 5674 5673 5675 5676 5673 5673 5676 5677 5679 5682 5681 5681 5682 5680 5677 5676 5675 5673
5684 5675 5676 5691 5692 5689 5690 5682 5676 5677 5674 5676 5682 5686 5689 5690 5690 5693 5693 5692 5691 5690 5690 5690 5689 5687 5687 5688 5688 5688 5687 5684 5686 5687 5685 5688 5690 5689 5690 5693 5693 5693 5692 5689 5688 5687 5683 5678 5676 5677 5680 5681 5683 5688 5688 5687 5686 5682 5680 5680 5680 5680 5679 5673 5669 5673 5673 5667 5667 5668 5663 5664 5669 5667 5665 5670 5674 5672 5672 5673 5673 5674 5674 5671 5670 5669 5666 5665
5671 5664 5667 5678 5677 5677 5678 5668 5665 5668 5664 5668 5676 5677 5677 5679 5680 5683 5683 5683 5681 5680 5680 5681 5681 5682 5681 5680 5681 5681 5677 5674 5676 5677 5676 5679 5683 5682 5683 5684 5683 5683 5682 5680 5679 5680 5675 5668 5664 5664 5667 5672 5676 5680 5679 5675 5674 5671 5668 5671 5673 5671 5671 5665 5660 5663 5665 5660 5662 5660 5648 5651 5663 5664 5661 5665 5667 5666 5664 5663 5664 5666 5666 5664 5662 5661 5659 5657
5658 5657 5658 5663 5662 5664 5663 5654 5653 5655 5654 5660 5667 5667 5667 5667 5669 5673 5675 5673 5672 5671 5671 5671 5673 5674 5673 5674 5673 5671 5669 5666 5666 5668 5668 5669 5672 5674 5675 5676 5674 5673 5673 5671 5671 5673 5667 5657 5654 5654 5654 5659 5664 5669 5670 5667 5663 5659 5659 5666 5666 5662 5663 5660 5655 5655 5653 5650 5656 5648 5631 5639 5658 5661 5658 5662 5662 5660 5657 5654 5657 5658 5656 5655 5655 5654 5653 5651
5646 5647 5646 5649 5649 5649 5647 5643 5643 5643 5645 5651 5653 5654 5657 5656 5657 5664 5665 5663 5662 5662 5661 5663 5664 5664 5664 5665 5663 5662 5662 5658 5655 5660 5661 5658 5662 5667 5667 5666 5666 5665 5666 5665 5662 5662 5656 5648 5645 5643 5640 5643 5650 5656 5659 5658 5654 5652 5655 5659 5657 5654 5655 5651 5647 5645 5638 5639 5647 5635 5618 5633 5655 5656 5654 5658 5656 5653 5651 5649 5650 5649 5646 5646 5646 5645 5644 5642
5634 5633 5633 5636 5636 5633 5632 5635 5637 5633 5633 5638 5639 5642 5647 5643 5646 5655 5657 5653 5653 5653 5652 5653 5654 5654 5654 5655 5653 5653 5654 5649 5647 5650 5652 5651 5653 5658 5658 5657 5657 5658 5658 5656 5653 5650 5644 5638 5636 5633 5628 5628 5636 5645 5651 5651 5647 5645 5647 5648 5647 5647 5645 5640 5638 5633 5625 5629 5634 5623 5613 5627 5646 5649 5649 5651 5648 5644 5645 5644 5643 5641 5639 5638 5638 5635 5634 5633
5622 5620 5621 5625 5624 5619 5619 5627 5629 5621 5622 5628 5627 5629 5635 5633 5636 5647 5647 5642 5643 5646 5642 5639 5641 5643 5644 5645 5644 5643 5644 5644 5640 5639 5641 5643 5645 5648 5648 5647 5648 5649 5648 5646 5644 5638 5629 5626 5626 5624 5619 5618 5625 5635 5643 5641 5633 5632 5636 5637 5636 5637 5635 5631 5626 5619 5619 5620 5617 5616 5617 5620 5630 5641 5643 5643 5641 5637 5636 5636 5633 5631 5631 5630 5628 5626 5624 5625
5610 5606 5610 5615 5612 5606 5606 5613 5618 5613 5614 5618 5614 5614 5623 5625 5627 5633 5633 5631 5635 5638 5631 5626 5629 5632 5634 5637 5636 5632 5636 5637 5633 5630 5631 5633 5637 5639 5637 5637 5637 5637 5637 5636 5634 5627 5617 5613 5617 5617 5613 5613 5615 5621 5630 5630 5622 5621 5624 5624 5625 5626 5625 5621 5612 5612 5619 5611 5599 5611 5622 5613 5615 5629 5633 5632 5633 5630 5628 5627 5623 5623 5623 5622 5619 5617 5616 5617
5599 5595 5599 5603 5599 5594 5595 5599 5605 5605 5603 5603 5600 5601 5609 5613 5614 5617 5621 5624 5626 5624 5618 5614 5618 5623 5626 5630 5626 5621 5624 5625 5622 5623 5624 5624 5628 5628 5626 5627 5627 5626 5626 5624 5621 5618 5607 5600 5607 5608 5603 5604 5607 5607 5614 5618 5614 5611 5610 5611 5614 5614 5613 5611 5607 5609 5612 5599 5591 5608 5617 5608 5608 5617 5620 5622 5624 5622 5619 5618 5616 5616 5616 5613 5609 5606 5607 5608
5590 5586 5587 5589 5585 5583 5586 5587 5591 5591 5588 5588 5587 5587 5593 5599 5602 5605 5612 5614 5610 5609 5609 5605 5608 5616 5620 5622 5617 5608 5609 5612 5610 5615 5618 5616 5617 5617 5613 5614 5616 5615 5614 5612 5611 5609 5598 5592 5598 5599 5592 5593 5597 5598 5602 5604 5602 5601 5600 5599 5601 5603 5605 5605 5600 5600 5600 5592 5592 5602 5602 5599 5603 5607 5609 5612 5613 5612 5610 5609 5609 5609 5607 5605 5599 5594 5597 5600
5579 5576 5575 5575 5571 5572 5574 5576 5578 5576 5574 5577 5574 5573 5580 5586 5591 5597 5601 5600 5596 5597 5599 5596 5600 5608 5609 5608 5602 5593 5595 5602 5602 5607 5614 5608 5602 5602 5598 5598 5604 5604 5600 5601 5601 5598 5592 5588 5591 5591 5581 5580 5589 5593 5593 5592 5590 5589 5589 5589 5590 5593 5597 5597 5593 5593 5593 5588 5590 5591 5585 5586 5597 5602 5601 5601 5602 5602 5601 5601 5600 5599 5599 5597 5589 5585 5588 5593
5567 5565 5564 5560 5557 5560 5562 5565 5568 5565 5562 5564 5563 5564 5569 5571 5579 5587 5586 5585 5585 5584 5586 5588 5591 5595 5593 5590 5585 5582 5590 5597 5595 5598 5603 5594 5587 5588 5586 5584 5591 5591 5588 5592 5592 5588 5585 5581 5583 5583 5571 5568 5583 5587 5582 5583 5579 5573 5574 5580 5584 5586 5588 5588 5587 5586 5584 5581 5581 5579 5573 5576 5589 5594 5592 5591 5593 5592 5591 5591 5589 5587 5590 5587 5580 5577 5580 5584
5555 5552 5553 5547 5541 5546 5552 5554 5557 5554 5550 5552 5554 5556 5557 5559 5568 5573 5567 5567 5573 5574 5576 5579 5580 5579 5575 5572 5575 5580 5587 5588 5583 5582 5583 5578 5574 5577 5575 5574 5578 5577 5577 5582 5581 5577 5576 5572 5574 5574 5561 5559 5574 5577 5572 5572 5562 5554 5567 5580 5583 5581 5578 5577 5577 5577 5577 5574 5568 5565 5567 5572 5579 5582 5581 5583 5586 5584 5582 5580 5575 5574 5579 5577 5571 5570 5572 5574